Location: Kmicica-DOM
(53.1202°N, 23.2052°E)
Time: 04:15:21
(UTC+02:00)

USA 276 - Pass Details

Date: 15 August 2022
Orbit: 366 x 369 km, 50.0° (Epoch: 12 July)

Event Time Altitude Azimuth Distance (km) Brightness Sun altitude
Exits shadow 03:13:08 23° 171° (S) 828 3.4 -14.4°
Maximum altitude 03:13:33 24° 157° (SSE) 809 3.4 -14.4°
Drops below altitude 10° 03:16:03 10° 101° (E) 1,349 5.2 -14.1°
Sets 03:18:18 0° 87° (E) 2,198 6.6 -13.9°
